GW3186 Weather Reports


Display with metric or nautical units.
time (UTC)temp
F
wind
direction
speed
MPH
gust
MPH
rain 1hr
in
rain 24hr
in
rain mn
in
humidity
%
barometer
mb
20260504110305 48 4 0.0 1.0 0.00 0.00 0.00 74 1016.9
20260504100223 48 21 0.0 0.0 0.00 0.00 0.00 75 1016.5
20260504081616 49 7 1.0 1.0 0.00 0.00 0.00 69 1016.9
20260504081112 49 1 0.0 0.0 0.00 0.00 0.00 68 1016.9
20260504080609 49 0 0.0 0.0 0.00 0.00 0.00 69 1016.9
20260504080105 49 353 0.0 0.0 0.00 0.00 0.00 66 1016.5
20260504050415 51 12 0.0 0.0 0.00 0.00 0.00 55 1017.2
20260504045913 51 13 0.0 0.0 0.00 0.00 0.00 57 1016.9
20260504045408 51 13 0.0 0.0 0.00 0.00 0.00 58 1016.9
20260504044905 51 13 0.0 0.0 0.00 0.00 0.00 58 1016.5
20260504044402 51 13 0.0 0.0 0.00 0.00 0.00 58 1016.9
20260504043900 51 13 0.0 0.0 0.00 0.00 0.00 60 1016.9
20260504043356 51 13 0.0 0.0 0.00 0.00 0.00 56 1016.9
20260504042854 51 13 0.0 0.0 0.00 0.00 0.00 57 1016.5
20260504042350 50 13 0.0 0.0 0.00 0.00 0.00 55 1016.9
20260504041846 51 13 0.0 0.0 0.00 0.00 0.00 56 1016.9
20260504041343 51 13 0.0 0.0 0.00 0.00 0.00 58 1016.9
20260504040839 51 13 0.0 0.0 0.00 0.00 0.00 58 1016.9
20260504040337 51 13 0.0 0.0 0.00 0.00 0.00 56 1016.9
20260504035832 51 13 0.0 0.0 0.00 0.00 0.00 60 1016.9
20260504035330 51 13 0.0 0.0 0.00 0.00 0.00 60 1016.9
20260504034827 51 13 0.0 0.0 0.00 0.00 0.00 60 1016.9
20260504034325 51 356 0.0 0.0 0.00 0.00 0.00 62 1016.9
20260504033821 51 356 0.0 0.0 0.00 0.00 0.00 56 1016.9
20260504033319 51 356 0.0 0.0 0.00 0.00 0.00 60 1016.9
20260504032815 51 356 0.0 0.0 0.00 0.00 0.00 56 1016.9
20260504032313 51 356 0.0 0.0 0.00 0.00 0.00 55 1016.9
20260504031810 51 6 0.0 0.0 0.00 0.00 0.00 58 1016.5
20260504031307 51 6 0.0 0.0 0.00 0.00 0.00 53 1016.5
20260504030803 51 6 0.0 0.0 0.00 0.00 0.00 59 1016.5
20260504030301 51 5 0.0 1.0 0.00 0.00 0.00 62 1016.5
20260504025756 52 6 0.0 0.0 0.00 0.00 0.00 58 1016.2
20260504025253 52 6 0.0 0.0 0.00 0.00 0.00 51 1016.5
20260504024750 52 6 0.0 0.0 0.00 0.00 0.00 51 1016.9
20260504024247 51 6 0.0 0.0 0.00 0.00 0.00 51 1016.5
20260504023744 50 5 0.0 0.0 0.00 0.00 0.00 52 1016.5
20260504023240 50 6 0.0 0.0 0.00 0.00 0.00 54 1016.5
20260504022736 50 6 0.0 0.0 0.00 0.00 0.00 55 1016.5
20260504022232 49 6 0.0 0.0 0.00 0.00 0.00 55 1016.5
20260504021730 49 6 0.0 0.0 0.00 0.00 0.00 56 1016.5
20260504021227 49 6 0.0 0.0 0.00 0.00 0.00 57 1016.5
20260504020723 49 6 0.0 0.0 0.00 0.00 0.00 60 1016.2
20260504020220 50 6 0.0 0.0 0.00 0.00 0.00 61 1016.2
20260504015716 50 6 1.0 1.0 0.00 0.00 0.00 56 1016.2
20260504015213 49 4 0.0 0.0 0.00 0.00 0.00 54 1016.2
20260504014708 49 350 0.0 0.0 0.00 0.00 0.00 55 1016.2
20260504014206 49 350 0.0 0.0 0.00 0.00 0.00 56 1016.2
20260504013703 50 349 0.0 0.0 0.00 0.00 0.00 55 1016.2
20260504013200 50 349 0.0 0.0 0.00 0.00 0.00 56 1016.2
20260504012657 50 349 0.0 0.0 0.00 0.00 0.00 55 1015.8
20260504012155 50 349 0.0 0.0 0.00 0.00 0.00 53 1015.8
20260504011652 50 349 0.0 0.0 0.00 0.00 0.00 55 1015.8
20260504011148 50 349 0.0 0.0 0.00 0.00 0.00 54 1015.8
20260504010644 51 349 0.0 0.0 0.00 0.00 0.00 55 1016.2
20260504010140 51 349 0.0 0.0 0.00 0.00 0.00 55 1015.8
20260504005637 52 350 0.0 0.0 0.00 0.00 0.00 53 1016.2
20260504005133 52 350 0.0 0.0 0.00 0.00 0.00 50 1015.8
20260504004632 53 350 0.0 0.0 0.00 0.00 0.00 50 1015.5
20260504004129 53 350 0.0 0.0 0.00 0.00 0.00 51 1015.8
20260504003625 53 350 0.0 0.0 0.00 0.00 0.00 50 1015.8
20260504003122 53 350 0.0 0.0 0.00 0.00 0.00 51 1015.8
20260504002618 54 350 0.0 0.0 0.00 0.00 0.00 48 1015.8
20260504002116 54 350 0.0 0.0 0.00 0.00 0.00 47 1015.5
20260504001614 55 350 0.0 0.0 0.00 0.00 0.00 46 1015.5
20260504001109 56 350 0.0 0.0 0.00 0.00 0.00 45 1015.5
20260504000607 56 350 0.0 0.0 0.00 0.00 0.00 44 1015.8
20260504000104 57 350 0.0 0.0 0.00 0.00 0.00 43 1015.8
20260503235602 57 350 0.0 0.0 0.00 0.00 0.00 43 1015.8
20260503235059 58 350 0.0 0.0 0.00 0.00 0.00 42 1015.5
20260503234556 58 350 0.0 0.0 0.00 0.00 0.00 41 1015.8
20260503234054 59 349 0.0 0.0 0.00 0.00 0.00 42 1015.5
20260503233545 59 350 0.0 0.0 0.00 0.00 0.00 41 1015.5
20260503233041 60 349 0.0 0.0 0.00 0.00 0.00 40 1015.2
20260503232538 60 50 0.0 0.0 0.00 0.00 0.00 40 1015.5
20260503232036 60 57 0.0 0.0 0.00 0.00 0.00 40 1015.5
20260503231533 61 57 0.0 0.0 0.00 0.00 0.00 39 1015.2
20260503231030 61 52 0.0 0.0 0.00 0.00 0.00 37 1015.5
20260503230526 61 54 0.0 0.0 0.00 0.00 0.00 34 1015.2
20260503230024 62 79 0.0 0.0 0.00 0.00 0.00 37 1015.2
20260503225521 62 79 0.0 0.0 0.00 0.00 0.00 37 1015.5
20260503225016 62 10 0.0 0.0 0.00 0.00 0.00 36 1015.2
20260503224514 63 347 0.0 0.0 0.00 0.00 0.00 34 1015.5
20260503224011 63 352 0.0 0.0 0.00 0.00 0.00 34 1015.2
20260503223509 63 3 1.0 1.0 0.00 0.00 0.00 34 1015.5
20260503223004 63 29 0.0 1.0 0.00 0.00 0.00 34 1015.5
20260503222502 63 326 0.0 1.0 0.00 0.00 0.00 32 1015.5
20260503222000 63 24 0.0 0.0 0.00 0.00 0.00 31 1015.5
20260503221458 63 316 1.0 1.0 0.00 0.00 0.00 36 1015.2
20260503220955 63 289 1.0 1.0 0.00 0.00 0.00 33 1015.2
20260503220446 63 57 1.0 1.0 0.00 0.00 0.00 32 1015.2
20260503215943 64 350 0.0 1.0 0.00 0.00 0.00 33 1015.5
20260503215439 64 330 1.0 1.0 0.00 0.00 0.00 35 1015.2
20260503214937 64 327 0.0 1.0 0.00 0.00 0.00 34 1015.5
20260503214435 64 15 1.0 1.0 0.00 0.00 0.00 32 1015.5
20260503213932 64 359 0.0 0.0 0.00 0.00 0.00 33 1015.5
20260503213430 65 13 1.0 2.0 0.00 0.00 0.00 32 1015.5
20260503212926 65 30 1.0 1.0 0.00 0.00 0.00 30 1015.5
20260503212424 66 357 1.0 1.0 0.00 0.00 0.00 32 1015.5
20260503211921 66 259 1.0 2.0 0.00 0.00 0.00 29 1015.5
20260503211418 68 27 0.0 1.0 0.00 0.00 0.00 28 1015.5
20260503210913 68 346 0.0 0.0 0.00 0.00 0.00 29 1015.5
20260503210410 68 311 1.0 1.0 0.00 0.00 0.00 29 1015.5
20260503205905 68 288 0.0 1.0 0.00 0.00 0.00 31 1015.8
20260503205403 68 336 1.0 1.0 0.00 0.00 0.00 32 1015.8
20260503204858 68 340 1.0 1.0 0.00 0.00 0.00 30 1015.5
20260503204356 68 356 1.0 1.0 0.00 0.00 0.00 27 1015.8
20260503203853 69 351 1.0 1.0 0.00 0.00 0.00 27 1015.8
20260503203350 69 330 0.0 0.0 0.00 0.00 0.00 30 1015.8
20260503202847 69 356 0.0 1.0 0.00 0.00 0.00 35 1015.8
20260503202345 68 319 1.0 1.0 0.00 0.00 0.00 31 1016.2
20260503201843 68 336 0.0 0.0 0.00 0.00 0.00 32 1016.2
20260503201340 68 37 1.0 1.0 0.00 0.00 0.00 31 1016.2
20260503200837 68 267 1.0 1.0 0.00 0.00 0.00 31 1016.2
20260503200333 69 3 1.0 1.0 0.00 0.00 0.00 36 1016.5
20260503195831 69 47 1.0 1.0 0.00 0.00 0.00 32 1016.5
20260503195327 68 328 0.0 0.0 0.00 0.00 0.00 30 1016.2
20260503194825 67 358 1.0 1.0 0.00 0.00 0.00 31 1016.5
20260503194320 67 294 1.0 1.0 0.00 0.00 0.00 34 1016.9
20260503193817 66 10 0.0 1.0 0.00 0.00 0.00 33 1016.9
20260503193313 66 130 3.0 6.0 0.00 0.00 0.00 31 1016.9
20260503192809 67 259 1.0 1.0 0.00 0.00 0.00 31 1016.9
20260503192305 67 1 1.0 1.0 0.00 0.00 0.00 32 1016.9
20260503191801 66 305 1.0 1.0 0.00 0.00 0.00 36 1017.2
20260503191258 66 52 1.0 2.0 0.00 0.00 0.00 31 1017.2
20260503190754 65 9 0.0 0.0 0.00 0.00 0.00 33 1017.2
20260503190251 66 300 1.0 1.0 0.00 0.00 0.00 30 1017.5
20260503185749 65 318 1.0 1.0 0.00 0.00 0.00 35 1017.5
20260503185244 64 2 1.0 2.0 0.00 0.00 0.00 33 1017.5
20260503184739 66 333 1.0 2.0 0.00 0.00 0.00 35 1017.5
20260503184236 65 6 1.0 1.0 0.00 0.00 0.00 32 1017.9
20260503183732 65 105 1.0 2.0 0.00 0.00 0.00 31 1017.5
20260503183229 64 334 1.0 1.0 0.00 0.00 0.00 37 1017.9
20260503182727 64 17 1.0 1.0 0.00 0.00 0.00 36 1017.9
20260503182225 65 306 1.0 1.0 0.00 0.00 0.00 35 1017.9
20260503181721 62 356 0.0 0.0 0.00 0.00 0.00 38 1018.2
20260503181218 63 309 0.0 1.0 0.00 0.00 0.00 32 1018.2
20260503180714 63 281 1.0 2.0 0.00 0.00 0.00 35 1018.2
20260503180213 63 315 1.0 1.0 0.00 0.00 0.00 36 1018.2
20260503175709 62 306 1.0 2.0 0.00 0.00 0.00 34 1018.2
20260503175208 61 343 1.0 1.0 0.00 0.00 0.00 37 1018.2
20260503174703 63 347 0.0 1.0 0.00 0.00 0.00 34 1018.2
20260503174201 63 293 3.0 3.0 0.00 0.00 0.00 33 1018.2
20260503173656 64 180 2.0 2.0 0.00 0.00 0.00 32 1018.2
20260503173152 62 9 0.0 1.0 0.00 0.00 0.00 34 1018.2
20260503172649 62 37 1.0 1.0 0.00 0.00 0.00 37 1018.6
20260503172146 60 173 0.0 1.0 0.00 0.00 0.00 33 1018.6
20260503171643 60 16 1.0 2.0 0.00 0.00 0.00 35 1018.6
20260503171140 61 348 1.0 1.0 0.00 0.00 0.00 35 1018.9
20260503170637 61 332 2.0 2.0 0.00 0.00 0.00 34 1018.9
20260503170134 61 3 2.0 2.0 0.00 0.00 0.00 36 1018.9
20260503150525 56 171 1.0 1.0 0.00 0.00 0.00 39 1020.0
20260503131418 48 11 1.0 1.0 0.00 0.00 0.00 52 1019.7
20260503130915 49 219 3.0 3.0 0.00 0.00 0.00 52 1020.0
20260503130413 49 341 0.0 1.0 0.00 0.00 0.00 57 1019.7
20260503110812 41 17 0.0 0.0 0.00 0.00 0.00 74 1018.9